2025-292H (67000 NORAD) Tracking and Keplerian Element Data

This shows tracking and keplerian element data for the satellite.

Feedback or suggestion? Click here.




ElementValue
Catalog67000
Name2025-292H
Epoch Orbit136
Epoch Day354.05360489
Epoch Year2025
RAAN66.5468
Inclination97.658
Eccentricity0.0014167
Argument of Perigee252.1732
Mean Anonmoly107.7949
Mean Motion15.04976699
Decay Rate4.213E-05
L11 67000U 25292H 25354.05360489 .00004213 00000+0 30083-3 0 9993
L22 67000 97.6580 66.5468 0014167 252.1732 107.7949 15.04976699 1369



Live tracking and technical data element details for 2025-292H (NORAD 67000). 2025-292H can be tracked NOW for your location showing map with azimuth and elevation plus other details from your city location.







IsCatalogInMostPopularTable: catalog: 67000, numindb: 13
Update: records affected: 1



GetName: 67000 2025-292H

Hit Count: updated at: Fri, 16 Jan 2026 09:55:26 GMT